AirNav   Bose Proflight aviation headeet
 
 304 users online  

8OR5 Pilot Butte Airport
Bend, Oregon, USA

GOING TO BEND?


FAA INFORMATION EFFECTIVE 03 JANUARY 2019

Location

FAA Identifier: 8OR5
Lat/Long: 44-02-50.4230N / 121-16-32.1090W
44-02.840383N / 121-16.535150W
44.0473397 / -121.2755858
(estimated)
Elevation: 3675 ft. / 1120 m (estimated)
Variation: 18E (1990)
Time zone: UTC -8 (UTC -7 during Daylight Saving Time)
Zip code: 97702

Airport Operations

Airport use: Private use. Permission required prior to landing
Activation date: 02/1993
Control tower: no
ARTCC: SEATTLE CENTER
FSS: MC MINNVILLE FLIGHT SERVICE STATION
Attendance: UNATNDD
Wind indicator: yes
Segmented circle: no

Airport Communications

WX AWOS-3 at BDN (4 nm NE): 134.425 (541-382-1477)
WX ASOS at RDM (14 nm NE): 119.025 (541-504-8743)

Nearby radio navigation aids

VOR radial/distance  VOR name  Freq  Var
DSDr156/12.4DESCHUTES VORTAC117.6018E

Airport Services

Runway Information

Runway 18/36

Dimensions: 2400 x 20 ft. / 732 x 6 m
Surface: asphalt
RUNWAY 18  RUNWAY 36
Traffic pattern: leftleft
Obstructions: 60 ft. trees, 400 ft. from runway45 ft. trees, 425 ft. from runway

Airport Ownership and Management from official FAA records

Ownership: Privately-owned
Owner: PILOT BUTTE AIRPORT ASSOC
1928 SE COOPER PLAZA
BEND, OR 97702
Phone (541) 678-7270
OTHER CONTACT DUANE FRANCIS 541-410-4203
Manager: ALAN VALENTI, POINT OF CONTACT
1928 SE COOPER PLAZA
BEND, OR 97702
Phone (541) 678-7270

Airport Operational Statistics

Aircraft based on the field: 9
Single engine airplanes: 8
Ultralights: 1
    

Additional Remarks

PRIVATE AIRPARK, OWNER USE ONLY, NO PERMISSION GRANTED

Instrument Procedures

There are no published instrument procedures at 8OR5.

Some nearby airports with instrument procedures:

KBDN - Bend Municipal Airport (4 nm NE)
S21 - Sunriver Airport (13 nm SW)
KRDM - Roberts Field Airport (14 nm NE)
S39 - Prineville Airport (22 nm NE)
S33 - Madras Municipal Airport (38 nm N)
 
Loc | Ops | Rwys | IFR | FBO | Links
Com | Nav | Svcs | Stats | Notes
Area around 8OR5 (Pilot Butte Airport)
 
Road maps at: MapQuest Bing Google
 
Aerial photo
WARNING: Photo may not be current or correct
Aerial photo of 8OR5 (Pilot Butte Airport)
Photo taken 07-Mar-2014
looking north.

Do you have a better or more recent aerial photo of Pilot Butte Airport that you would like to share? If so, please send us your photo.

 
Sectional chart

 
Airport distance calculator
Flying to Pilot Butte Airport? Find the distance to fly.

From to 8OR5

Sunrise and sunset
Times for 19-Jan-2019
 Local
(UTC-8)
 Zulu
(UTC)
Morning civil twilight07:0415:04
Sunrise07:3515:35
Sunset16:5700:57
Evening civil twilight17:2801:28

Current date and time
Zulu (UTC)  19-Jan-2019 09:25:46
Local (UTC-8)  19-Jan-2019 01:25:46
 
METAR
KBDN 
4nm NE 
190855Z AUTO 20011KT 7SM -DZ FEW021 FEW026 SCT036 07/04 A3006 RMK AO2 P0001
KRDM 
13nm NE 
190856Z AUTO 19008KT 7SM -RA FEW023 BKN055 OVC070 06/04 A3005 RMK AO2 SLP185 P0004 60018 T00610044 51013
6K5 
19nm NW 
SuperAWOS
190855Z AUTO 00000KT 05/04 A2997
TAF
KBDN 
4nm NE 
190537Z 1906/2006 19008KT 6SM -RA BR OVC035 FM191900 31007KT P6SM -RA OVC035
KRDM 
13nm NE 
190537Z 1906/2006 18008KT 6SM -RA BR OVC040 FM191900 31007KT P6SM -RA OVC040
NOTAMs
Click for the latest NOTAMs
NOTAMs are issued by the DoD/FAA and will open in a separate window not controlled by AirNav.

 

 
 

Would you like to see your business listed on this page?

 If your business provides an interesting product or service to pilots, flight crews, aircraft, or users of the Pilot Butte Airport, you should consider listing it here.  To start the listing process, click on the button below
 
Add a business
 

Other Pages about Pilot Butte Airport

Update a link
 
Copyright © AirNav, LLC. All rights reserved. Privacy Policy  Contact